Flag for New Zealand Weather past 2 weeks in Christchurch, New Zealand

Now
23 °F

Cold.


Feels Like: 23 °F
Forecast: 32 / 51 °F
Wind: 1 mph from Northwest

Location: Christchurch Airport

Current Time: May 29, 2015 at 5:15:59 AM

Latest Report: May 29, 2015 at 4:30 AM


Visibility: 6 mi

Pressure: 30.33 "Hg

Humidity: 100%

Dew point: 23 °F

Location of ChristchurchLocation

Historic Weather in Christchurch — Graph

°F

Christchurch temperature yesterday

Maximum temperature yesterday: 54 °F (at 1:00 PM)
Minimum temperature yesterday: 25 °F (at 11:30 PM)
Average temperature yesterday: 37 °F

Past Weeks' High & Low Weather Summary

 TemperatureHumidityPressure
High72 °F (May 21, 1:00 PM)100% (May 15, 12:30 PM)30.36 "Hg (May 15, 12:30 PM)
Low25 °F (May 23, 7:00 AM)31% (May 23, 2:00 PM)29.30 "Hg (May 24, 2:00 PM)
Average46 °F73%29.83 "Hg
* Reported May 14 4:00 AM — May 29 4:00 AM, Christchurch, Weather by CustomWeather, © 2015

Note: Actual official high and low records may vary slightly from our data, if they occured in-between our weather recording intervals... More about our weather records

Advertising

Christchurch weather history for previous 24 hours

 ConditionsComfort  
Time TempWeatherWind HumidityBarometerVisibility
4:00 AM
Fri, May 29
25 °FCold.1 mph100%30.33 "Hg4 mi
3:30 AM25 °FIce fog.1 mph93%30.33 "Hg1 mi
3:00 AM25 °FCold.No wind100%30.33 "Hg4 mi
2:30 AM27 °FIce fog.2 mph100%30.33 "Hg3 mi
2:00 AM27 °FChilly.1 mph100%30.33 "Hg4 mi
1:30 AM27 °FChilly.2 mph100%30.33 "Hg5 mi
1:00 AM25 °FHaze.1 mph100%30.36 "Hg1 mi
12:30 AM27 °FChilly.2 mph93%30.36 "Hg4 mi
12:00 AM27 °FChilly.1 mph100%30.36 "HgN/A
11:30 PM
Thu, May 28
25 °FCold.No wind93%30.36 "Hg6 mi
11:00 PM28 °FChilly.1 mph93%30.36 "Hg6 mi
10:30 PM30 °FChilly.1 mph93%30.36 "HgN/A
10:00 PM28 °FChilly.1 mph93%30.36 "HgN/A
9:30 PM28 °FChilly.2 mph93%30.36 "HgN/A
9:00 PM30 °FChilly.1 mph93%30.36 "HgN/A
8:30 PM34 °FChilly.1 mph87%30.36 "HgN/A
8:00 PM32 °FChilly.1 mph87%30.36 "HgN/A
7:30 PM34 °FChilly.1 mph87%30.33 "HgN/A
7:00 PM41 °FQuite cool.2 mph81%30.33 "HgN/A
6:30 PM41 °FQuite cool.3 mph81%30.33 "HgN/A
6:00 PM41 °FQuite cool.5 mph76%30.33 "HgN/A
5:30 PM41 °FQuite cool.6 mph76%30.33 "HgN/A
5:00 PM45 °FQuite cool.7 mph66%30.30 "HgN/A
4:30 PM48 °FCool.7 mph62%30.30 "HgN/A
4:00 PM50 °FCool.7 mph58%30.30 "HgN/A
3:30 PM52 °FCool.3 mph50%30.30 "HgN/A
3:00 PM52 °FCool.3 mph50%30.30 "HgN/A
2:30 PM54 °FCool.2 mph47%30.30 "HgN/A
2:00 PM52 °FCool.3 mph54%30.30 "HgN/A
1:30 PM52 °FCool.3 mph50%30.30 "HgN/A
1:00 PM54 °FCool.1 mph54%30.30 "HgN/A
12:30 PM52 °FCool.1 mph58%30.30 "HgN/A
12:00 PM50 °FCool.1 mph62%30.30 "HgN/A
11:30 AM48 °FCool.2 mph66%30.33 "HgN/A
11:00 AM46 °FCool.2 mph66%30.33 "HgN/A
10:30 AM43 °FQuite cool.1 mph71%30.30 "HgN/A
10:00 AM39 °FChilly.2 mph75%30.30 "HgN/A
9:30 AM34 °FChilly.No wind87%30.30 "HgN/A
9:00 AM30 °FChilly.No wind93%30.30 "HgN/A
8:30 AM30 °FChilly.No wind93%30.27 "HgN/A
8:00 AM28 °FChilly.1 mph93%30.27 "HgN/A
7:30 AM27 °FChilly.No wind93%30.27 "HgN/A
7:00 AM30 °FChilly.1 mph93%30.27 "HgN/A
6:30 AM27 °FChilly.1 mph93%30.24 "HgN/A
6:00 AM28 °FChilly.1 mph93%30.24 "HgN/A
5:30 AM28 °FChilly.1 mph93%30.24 "HgN/A
5:00 AM28 °FChilly.1 mph86%30.24 "HgN/A
Weather by CustomWeather, © 2015

See weather overviewHow to use our weather pages